Temp
15 15 15 15 15 16 16 16 16 17 17 17 17 17 18 18 19 18 19 19 19 18 18 18 18 18 17 17 18 19 19 19 18 18 18 17 16 16 16 15 16 17 17 17 17 15 14
15 15 15 15 16 16 16 16 16 16 17 17 17 17 18 18 19 18 18 18 17 18 18 18 18 18 18 18 19 19 19 19 18 18 18 17 16 16 16 16 16 17 16 16 18 16 14
15 15 15 15 16 16 16 16 16 16 17 17 17 17 18 19 19 18 18 18 17 18 18 18 18 18 17 18 19 19 19 18 18 18 17 17 16 16 15 16 16 17 16 16 17 16 14
15 15 15 15 16 16 16 16 16 17 17 17 17 17 17 18 19 19 19 18 18 18 17 17 17 18 17 19 19 19 19 18 18 18 17 17 17 16 16 16 15 15 14 14 17 17 15
15 15 15 15 16 16 16 16 16 17 16 16 16 17 17 18 19 19 20 19 18 18 17 17 17 17 18 19 19 19 18 18 18 18 17 17 17 15 14 13 12 12 13 15 16 15 15
15 15 15 15 15 15 16 16 16 16 16 16 16 17 17 17 18 19 20 19 18 18 17 18 17 18 18 17 18 19 19 18 17 17 17 17 12 13 11 12 12 14 14 14 14 14 11
14 15 15 15 15 15 15 15 15 16 16 16 16 17 17 17 17 18 21 18 15 15 16 16 16 16 17 18 18 19 18 18 17 17 16 15 13 14 15 15 14 14 13 13 15 14 11
14 14 15 15 15 15 15 15 15 15 15 16 16 16 17 17 17 16 17 11 11 11 14 16 16 17 17 17 17 18 18 17 17 16 16 14 15 16 15 15 15 15 15 14 14 14 11
15 14 15 15 15 15 15 15 15 15 15 15 15 16 17 17 17 15 13 11 11 11 13 16 17 17 17 17 17 17 17 16 17 17 16 15 17 17 16 15 14 14 14 14 14 14 11
15 14 14 14 15 15 15 15 15 14 15 15 15 15 16 17 17 14 12 12 11 11 13 17 18 18 18 17 18 18 17 17 17 17 16 16 16 16 16 16 14 14 14 14 14 13 13
15 14 14 14 14 14 14 15 15 15 14 15 15 15 15 16 14 13 12 11 11 11 13 19 18 19 18 18 18 18 17 17 17 17 16 17 16 16 16 16 15 14 13 14 14 13 13
15 14 14 14 14 14 15 14 15 15 14 14 15 15 15 15 14 13 12 11 11 14 13 17 18 17 16 17 18 17 17 17 16 16 16 15 15 15 16 15 14 14 14 13 12 11 11
14 14 15 15 14 14 15 15 14 14 14 13 15 15 15 15 14 13 12 11 14 14 18 17 16 16 15 16 17 18 17 14 14 13 13 13 15 16 15 15 15 13 12 12 13 11 12
14 14 14 14 13 14 14 14 14 14 14 14 15 16 15 15 14 14 13 14 16 18 17 16 16 15 17 16 17 16 16 14 14 14 11 11 12 15 15 15 14 13 12 11 14 13 13
13 13 13 13 13 13 13 13 13 14 14 14 15 16 15 15 15 15 13 13 16 17 17 15 16 16 16 17 16 14 15 14 14 14 14 12 13 15 15 15 14 14 12 13 12 11 11
13 13 13 13 13 13 13 13 14 13 13 13 13 14 14 15 15 14 12 15 16 16 16 16 16 16 16 15 15 14 15 15 15 15 13 14 11 14 15 14 14 14 14 13 11 13 13
13 13 13 13 13 12 12 13 12 12 13 13 13 12 14 15 15 11 13 14 16 16 15 16 15 15 15 15 14 15 15 16 15 15 14 14 12 12 13 14 14 13 13 13 12 11 12
12 12 12 12 11 11 12 12 11 12 12 13 12 13 14 16 13 10 14 15 14 15 15 15 15 14 15 15 14 15 15 15 15 15 14 13 10 10 12 13 13 14 14 13 12 12 11
12 12 12 11 11 11 11 12 12 12 12 13 10 10 14 14 14 13 13 16 15 15 15 15 15 14 15 15 14 13 14 15 14 14 14 13 11 10 11 13 13 13 14 14 12 10 11
12 12 12 10 11 11 12 12 12 12 11 12 10 11 10 9 9 13 14 15 15 14 14 15 15 15 14 13 13 13 14 15 14 13 13 12 10 11 11 12 12 11 12 13 12 9 12
12 12 12 11 10 11 12 12 12 12 11 12 10 11 10 11 12 13 14 14 14 15 13 14 14 14 14 12 13 12 13 13 13 13 12 11 9 9 9 10 11 11 11 12 11 12 11
12 12 11 11 11 11 12 12 12 11 11 11 9 10 8 9 11 12 13 12 13 13 14 14 13 14 13 12 13 12 12 12 12 11 10 9 9 10 8 10 10 10 11 12 12 12 11
12 12 11 11 11 11 12 11 12 11 11 10 10 10 11 11 10 11 11 12 13 13 14 13 13 13 12 12 12 10 10 9 9 10 9 9 8 8 9 9 8 10 11 11 11 10 10
13 12 11 10 10 11 11 11 11 11 11 11 11 11 10 11 9 10 12 11 12 12 13 13 12 11 12 11 11 10 7 7 7 8 9 8 8 8 7 8 8 11 8 8 8 7 6
13 13 12 11 10 10 10 10 10 11 11 10 11 11 9 10 11 11 10 10 11 10 10 10 11 11 11 11 9 9 8 9 9 7 7 8 9 8 8 8 9 9 7 7 7 6 4
11 13 12 10 9 9 10 10 10 11 11 10 10 11 10 9 10 12 10 10 9 8 9 9 9 9 10 9 8 9 10 9 9 8 6 7 7 9 8 9 9 9 4 4 5 6 3
7 8 9 8 8 8 9 9 10 10 11 10 10 10 10 8 9 10 10 10 9 9 9 9 8 9 9 8 8 8 7 8 8 8 6 5 6 7 8 8 8 4 4 4 8 7 1
6 6 6 6 7 7 7 8 9 9 10 9 9 10 9 7 9 9 10 10 9 9 10 8 9 7 7 7 7 8 6 7 8 7 6 6 6 6 7 8 8 3 3 6 1 -0 -0
5 5 6 6 6 6 7 7 8 9 9 9 8 9 8 7 8 8 9 10 11 12 10 8 10 8 8 7 7 7 8 7 6 7 7 7 8 7 8 9 1 0 -0 -1 -0 -1 -2
Height
876 875 875 873 872 871 869 867 865 862 860 857 854 850 846 842 837 833 830 825 822 819 817 816 816 817 818 820 823 821 821 820 818 817 816 815 819 823 827 826 823 825 823 820 819 823 828
878 877 876 875 874 872 870 868 866 863 860 857 854 850 846 841 837 833 829 824 821 819 817 817 816 817 818 826 823 822 821 820 819 818 817 817 820 821 824 824 827 824 823 822 818 823 827
880 879 878 877 875 874 872 870 868 865 862 858 855 851 847 842 837 833 828 825 823 820 819 818 818 818 819 824 823 823 822 821 820 819 819 820 819 820 823 824 822 823 827 824 823 823 831
882 880 879 878 877 875 874 872 869 866 863 860 856 852 847 842 837 833 828 825 823 822 821 821 821 820 825 824 824 823 822 821 821 821 820 820 820 820 822 822 827 832 834 841 826 824 829
883 882 881 880 878 877 875 873 871 868 865 861 857 852 847 842 837 833 827 824 824 824 823 822 822 822 829 826 825 823 822 821 820 820 820 821 821 827 828 838 846 846 845 838 833 828 828
884 883 882 881 880 878 876 874 872 869 866 862 857 853 848 842 838 834 827 825 824 824 824 823 824 828 826 829 824 822 820 819 819 820 822 823 831 840 845 848 858 846 845 839 838 835 840
885 884 883 882 881 879 878 875 873 870 866 862 858 853 849 844 840 836 829 826 829 829 826 832 833 831 827 825 823 821 820 820 821 822 828 828 840 844 839 839 839 839 842 843 831 832 846
885 884 883 882 881 880 878 876 873 870 867 863 859 854 849 845 840 838 834 836 844 845 840 831 831 829 828 827 827 822 822 824 825 832 828 839 840 832 832 834 835 834 834 836 833 831 845
885 884 884 883 881 880 879 877 874 871 867 864 860 854 849 845 840 839 840 845 845 845 845 835 830 830 830 830 831 827 825 826 827 829 832 840 831 826 829 836 839 839 839 837 838 832 844
884 884 883 882 881 880 879 877 874 871 868 864 860 855 851 846 844 843 844 845 844 845 852 842 834 830 827 826 830 825 825 828 828 832 832 833 828 829 830 832 835 840 835 834 836 838 843
882 882 882 881 880 879 878 876 874 871 868 865 861 856 852 847 847 846 849 845 844 846 881 838 834 827 826 830 828 826 825 825 830 831 835 833 830 830 831 829 833 835 832 833 833 838 839
880 880 880 879 879 877 876 875 873 870 868 865 861 857 852 850 848 848 846 844 845 857 883 847 837 839 837 831 829 825 826 825 826 830 832 833 830 831 830 830 831 829 829 833 840 843 854
876 877 877 876 876 875 874 873 871 869 867 864 860 856 852 850 850 847 845 845 857 872 847 849 848 843 845 840 835 831 833 840 845 852 850 842 832 830 830 833 831 835 839 846 845 852 845
873 873 873 874 873 872 871 870 868 867 865 862 859 855 852 850 848 845 843 847 864 852 853 848 847 847 846 844 838 838 838 847 844 844 858 860 854 834 832 834 838 840 842 855 841 843 841
870 870 870 870 870 869 868 867 866 865 863 860 857 853 851 849 847 845 847 868 862 856 854 856 850 851 852 844 847 848 843 847 845 844 849 858 848 834 833 832 835 836 847 840 845 846 852
868 867 867 867 867 866 866 865 864 862 862 859 856 853 851 850 847 845 854 859 856 854 854 855 859 854 857 856 855 855 849 842 844 843 845 848 859 838 832 834 834 833 836 845 855 840 836
865 865 865 865 865 865 864 863 862 861 860 858 856 854 851 849 847 851 862 860 853 853 853 857 859 860 858 858 856 853 847 842 841 842 842 846 856 847 838 836 837 839 839 839 844 849 840
863 863 863 863 863 863 863 862 862 861 861 859 858 859 851 849 855 864 860 853 853 853 853 854 855 857 857 856 856 851 849 845 843 842 846 845 858 866 846 836 836 835 835 839 847 843 852
860 861 861 861 861 862 862 862 862 861 861 860 862 861 852 851 859 863 858 854 851 854 855 855 855 855 854 856 860 854 847 842 842 843 847 848 857 866 849 840 833 833 834 833 841 849 845
856 857 858 859 859 860 861 861 860 860 861 862 863 865 859 858 863 860 859 856 854 854 855 854 855 855 856 858 857 855 849 843 844 844 844 845 858 853 856 841 838 840 833 832 835 848 830
854 854 854 855 856 857 859 859 859 860 861 863 864 865 865 864 862 862 860 858 857 857 856 853 854 856 857 862 859 856 850 847 845 845 846 851 857 857 849 843 840 835 828 824 830 820 825
850 851 852 852 852 854 856 857 858 859 860 863 867 867 868 867 864 861 861 862 859 856 854 855 856 853 857 860 856 856 855 851 849 848 850 854 854 848 853 841 839 835 822 813 813 813 814
847 848 849 850 850 851 852 853 855 857 859 860 863 864 863 863 866 866 862 858 857 856 851 851 852 854 854 852 853 854 855 853 850 848 853 853 856 856 844 843 843 827 811 809 808 812 815
843 844 846 847 848 849 850 851 851 852 854 856 858 861 865 861 865 865 856 858 856 857 854 851 853 854 851 850 850 848 850 849 849 846 847 851 854 857 857 850 845 811 822 821 822 828 830
838 838 840 841 844 846 847 849 849 851 851 852 854 857 860 860 857 857 858 858 856 857 858 854 848 847 848 850 854 852 849 844 841 847 845 843 846 856 853 848 830 815 827 825 823 827 835
833 833 833 835 837 840 842 844 846 847 848 848 849 852 854 857 851 846 852 853 856 859 858 852 849 848 849 853 859 856 844 840 839 839 846 847 845 843 848 839 829 814 833 834 832 826 834
830 828 829 830 831 833 836 839 841 843 844 844 842 846 849 852 844 845 848 848 849 851 849 848 849 850 848 856 858 853 856 846 844 840 851 856 854 844 841 833 824 830 833 835 824 821 841
824 824 826 827 827 827 829 832 834 837 839 839 838 840 841 842 835 835 836 839 844 843 841 845 848 851 855 858 852 845 854 844 840 835 842 842 844 848 839 834 821 832 834 829 839 843 844
819 820 821 822 823 822 823 825 828 830 832 834 833 835 836 837 830 827 828 826 827 827 831 836 831 836 837 842 843 840 835 835 837 835 826 829 818 821 821 808 831 836 836 839 840 843 848
Wind_Speed
14 14 15 15 15 16 16 16 17 18 19 21 23 25 27 29 25 22 23 22 15 11 9 6 2 5 3 4 1 3 7 7 6 7 8 4 5 3 3 4 4 3 2 3 3 9 6
13 13 14 14 14 14 15 16 17 19 20 23 25 27 28 30 22 26 25 19 13 11 8 5 5 6 2 3 1 6 7 7 7 5 5 6 3 1 1 2 2 2 4 3 1 6 4
12 12 13 13 14 15 16 17 19 20 22 24 25 27 29 29 21 26 25 15 11 11 8 7 7 4 4 4 2 4 6 5 6 4 3 3 2 3 0 3 1 1 3 4 3 3 4
11 12 12 13 14 15 16 18 19 21 22 24 25 27 29 30 22 25 26 10 6 10 8 8 5 4 2 1 1 8 7 2 3 4 3 2 2 2 1 2 6 5 4 3 3 1 5
11 11 12 13 14 15 16 17 18 20 22 24 26 27 29 30 21 24 26 5 3 7 6 5 4 3 2 2 3 7 5 4 4 2 2 1 2 3 6 4 5 6 1 2 4 6 1
10 11 12 13 14 15 16 17 19 20 24 26 28 27 30 31 18 24 22 4 2 6 4 3 3 3 4 3 6 5 4 4 1 4 3 3 5 4 4 5 1 3 3 4 4 1 9
9 10 11 12 13 14 15 17 18 20 23 26 29 29 31 30 14 22 22 3 8 5 10 2 5 2 3 8 2 2 4 4 2 4 2 3 5 1 3 3 5 4 3 4 3 6 6
7 9 10 11 12 13 15 16 18 20 22 25 29 30 32 29 11 18 24 8 2 1 3 3 4 3 3 4 3 3 9 3 2 2 2 6 1 3 3 2 1 1 2 2 5 6 6
7 8 9 11 12 13 15 16 19 20 22 25 27 29 32 28 8 15 23 10 3 1 1 5 2 3 3 3 3 5 5 2 1 2 2 4 2 1 2 3 5 2 2 2 4 5 5
8 9 10 11 12 13 15 16 19 21 22 23 26 28 31 28 4 12 5 12 3 1 4 7 5 2 1 1 2 1 2 1 3 2 2 2 1 1 2 2 3 2 5 2 2 1 2
10 10 11 12 13 13 15 16 19 21 21 22 24 27 28 23 10 4 9 9 1 1 5 5 5 3 3 1 2 1 0 2 1 3 3 4 2 2 1 1 3 6 5 4 3 2 2
11 12 12 12 12 13 15 17 17 18 21 22 22 24 25 15 7 8 14 5 2 5 2 5 4 7 6 5 4 5 2 2 0 2 1 4 1 2 2 3 4 6 1 3 3 2 1
12 11 13 14 15 15 15 17 16 17 17 22 22 23 18 15 7 16 12 1 5 6 3 7 4 5 4 4 6 4 4 5 3 6 5 6 2 1 1 4 2 7 4 2 3 2 4
13 14 14 16 16 15 14 14 13 13 15 19 22 23 15 8 11 15 5 4 7 1 2 3 4 6 3 6 3 5 3 4 4 3 1 2 7 3 3 1 3 3 2 3 3 2 3
15 14 14 14 14 13 12 12 12 14 14 17 21 16 7 6 13 13 4 5 2 1 2 6 6 5 5 3 3 7 4 1 0 2 3 5 5 3 2 1 4 1 2 1 1 1 1
11 11 11 11 12 12 12 13 15 12 12 15 14 9 6 9 13 5 4 1 0 1 2 2 3 3 3 5 7 7 3 1 1 2 2 0 5 2 3 1 2 2 3 1 2 1 3
9 9 9 9 8 7 8 10 9 8 7 10 6 3 3 11 8 4 3 3 0 1 2 1 1 3 2 3 2 4 4 2 1 1 2 1 2 6 3 0 1 3 1 1 2 3 2
8 8 8 8 7 6 6 6 6 4 5 6 4 2 7 10 3 1 1 2 2 1 1 1 3 4 3 2 4 3 3 2 3 1 2 0 3 4 7 2 2 1 2 2 2 3 2
8 8 7 6 6 4 6 6 4 2 1 2 1 2 4 5 2 2 4 2 1 1 2 2 2 4 1 2 3 4 3 1 1 2 2 1 1 4 8 3 0 3 2 3 2 2 5
8 8 7 7 5 5 5 5 4 3 2 0 1 3 3 4 1 2 2 2 1 0 2 2 2 1 2 2 4 5 3 2 1 3 5 2 3 7 7 8 3 5 8 5 6 4 5
9 9 9 8 6 6 6 6 4 3 4 3 2 2 2 2 1 1 2 1 0 3 2 1 1 3 3 3 4 5 3 3 2 2 3 3 5 5 8 8 6 13 16 12 13 16 12
10 10 10 9 9 8 8 7 7 8 8 2 3 2 2 2 1 1 3 3 4 3 3 3 4 2 1 4 5 13 7 2 7 0 3 2 4 2 5 9 11 16 19 18 16 14 14
10 10 10 10 10 11 10 9 10 11 11 3 3 1 1 2 1 2 4 5 3 3 3 1 5 2 5 9 3 7 6 7 6 5 6 4 3 2 6 3 7 13 10 8 4 3 4
13 11 10 10 12 12 13 13 12 17 18 8 6 5 3 3 4 5 3 5 5 6 7 2 3 5 4 2 3 6 6 10 10 11 6 4 4 2 4 4 4 5 2 1 3 3 1
16 15 14 13 12 13 14 16 16 16 20 20 10 6 3 3 3 5 7 5 2 2 4 4 6 3 5 3 3 6 4 4 1 2 6 7 5 2 3 3 7 5 1 3 4 4 1
18 17 16 14 13 14 16 17 19 19 19 27 21 18 5 2 6 6 4 6 4 3 3 5 2 0 2 2 1 2 3 3 4 2 4 3 2 5 3 4 5 1 3 0 2 4 3
17 16 15 14 14 15 15 18 20 20 19 28 13 27 6 3 4 5 4 5 5 2 3 1 2 2 1 3 4 5 5 3 4 4 4 3 2 11 10 5 7 3 3 1 2 2 3
17 16 16 16 15 15 16 18 19 21 21 25 18 24 16 4 4 10 8 5 3 4 5 4 2 1 2 4 4 4 5 5 2 3 5 7 7 4 4 5 9 4 2 6 4 3 6
18 17 17 16 16 15 16 18 20 21 21 19 12 23 27 4 3 10 17 17 16 11 5 6 3 5 5 4 4 3 5 3 5 4 2 4 6 4 9 5 2 1 2 2 3 4 3
Wind_Direction
60 56 54 50 47 44 40 37 32 29 25 21 17 11 7 4 2 2 356 350 350 1 4 14 62 128 126 56 106 16 6 10 6 10 20 17 53 43 24 330 13 71 295 329 332 99 94
57 53 50 47 44 41 38 34 30 26 22 19 15 9 6 5 4 359 358 360 7 9 15 37 112 122 102 77 60 5 13 10 18 26 36 40 62 158 296 304 86 203 309 277 14 61 59
51 47 43 40 37 34 31 29 26 22 19 16 12 7 4 3 2 358 356 359 15 23 29 82 107 83 68 136 65 13 345 350 16 21 73 38 59 80 290 342 300 32 70 33 351 352 159
47 42 38 34 31 30 27 26 24 21 17 13 7 4 3 1 1 357 352 356 37 35 58 80 69 52 71 96 16 358 6 29 328 5 50 55 19 105 78 330 20 55 40 359 302 219 1
44 41 37 35 32 30 27 24 22 19 15 11 7 5 2 360 4 2 351 12 43 40 63 53 42 48 30 16 6 341 343 344 322 306 11 35 45 62 19 50 20 15 266 300 327 16 124
43 40 38 35 33 30 28 24 19 16 12 9 7 6 3 359 7 7 355 31 71 43 33 18 29 44 15 313 308 313 330 328 355 343 23 51 50 61 30 49 190 283 311 279 243 184 60
31 28 28 27 24 21 18 16 13 10 8 6 5 3 4 359 10 13 16 12 16 356 35 96 276 236 280 322 300 275 329 325 47 59 44 19 67 322 253 223 222 225 207 242 264 163 86
10 6 7 6 6 6 5 4 3 3 3 2 2 1 2 360 1 14 38 70 89 284 327 314 279 273 277 339 324 303 353 37 40 4 25 20 123 232 258 98 297 120 158 288 285 131 88
337 340 343 345 348 350 351 352 352 354 356 358 357 358 356 357 350 5 48 49 6 205 106 316 279 305 306 6 316 303 23 342 37 29 18 154 238 228 91 59 22 344 167 250 222 340 65
304 315 322 324 329 333 337 342 343 343 347 351 353 351 355 357 13 356 51 2 354 221 78 318 343 330 339 184 290 275 359 43 353 327 3 217 341 22 35 106 122 299 217 246 228 81 245
284 296 309 317 318 320 326 330 333 333 337 341 346 346 350 355 336 42 332 341 13 89 48 303 305 313 294 110 310 0 105 56 338 307 81 264 326 346 335 211 158 237 162 230 228 182 7
286 291 295 305 313 316 320 321 320 320 325 334 340 343 344 348 353 350 339 331 134 45 300 331 317 351 10 343 323 319 42 41 89 354 329 260 283 173 275 320 186 287 26 68 58 94 10
275 271 282 296 306 304 310 310 315 315 322 329 338 340 337 338 339 333 335 146 35 86 343 319 328 354 347 301 323 352 7 16 43 22 1 333 318 320 27 339 20 28 35 357 354 358 228
268 277 284 287 288 291 294 303 313 316 320 328 332 330 329 336 337 338 348 40 66 309 317 349 333 326 342 359 308 325 358 19 34 67 55 46 334 0 13 85 305 332 131 146 266 239 282
265 266 268 273 284 293 289 296 303 311 319 328 331 323 331 340 339 341 57 51 191 246 321 338 331 30 331 358 347 6 6 166 25 54 53 12 284 329 245 240 135 358 6 217 173 295 3
265 269 273 276 279 282 287 291 294 294 311 329 332 320 325 342 338 350 71 163 148 28 347 4 357 40 327 322 2 10 312 298 94 66 118 340 305 278 294 339 264 194 164 351 1 277 268
266 272 276 280 283 286 292 300 306 303 315 325 333 3 346 339 340 45 107 210 116 81 46 41 296 309 328 310 300 300 282 303 26 158 91 86 126 289 341 159 294 343 317 204 174 174 255
264 270 280 287 285 294 302 308 310 307 320 333 354 340 341 341 45 35 142 228 151 183 77 188 152 207 210 292 276 267 270 259 13 82 336 215 160 283 258 264 234 237 302 103 119 291 275
257 265 272 284 283 283 300 309 293 270 257 312 70 274 346 5 97 348 313 276 174 157 260 212 259 223 205 225 309 229 280 212 129 133 194 253 280 331 330 14 303 84 256 202 150 146 211
247 254 259 268 270 257 272 289 306 224 207 216 73 348 329 44 15 124 296 272 231 5 271 253 287 331 354 303 237 287 286 306 215 208 166 133 220 193 229 250 209 259 252 262 207 211 235
247 251 253 250 254 242 252 258 263 219 198 175 32 242 181 291 350 212 300 310 322 303 203 239 254 231 131 287 311 255 263 303 258 219 189 171 232 219 255 270 269 265 260 248 231 245 239
253 251 250 244 234 222 232 240 241 210 181 196 145 146 342 287 306 197 210 245 204 259 217 239 213 240 215 223 228 290 294 271 246 251 188 203 261 258 264 257 262 279 272 260 248 256 266
256 259 255 249 241 227 222 228 234 212 185 165 162 129 79 262 168 139 217 223 223 165 256 234 233 219 256 258 221 252 240 252 251 228 204 200 194 6 278 339 320 283 273 254 196 181 240
261 262 262 260 249 237 225 230 226 220 208 197 171 144 129 257 185 205 219 200 224 229 248 175 147 180 237 66 287 266 248 248 239 245 193 186 143 171 286 339 243 257 9 50 86 42 69
264 265 262 254 250 245 233 234 235 241 220 218 197 166 162 244 209 229 243 246 263 254 259 240 232 216 139 61 332 316 323 323 259 15 209 183 161 229 258 225 294 250 188 147 182 214 221
266 266 264 252 244 242 238 233 239 236 234 219 219 209 169 160 224 198 186 200 223 220 286 243 318 173 107 106 97 259 265 252 281 258 28 85 173 184 184 247 258 201 164 146 191 268 188
269 267 264 256 247 242 238 234 238 241 237 230 224 216 179 193 224 150 186 192 178 183 227 262 188 176 99 146 200 216 243 241 255 216 172 136 178 212 224 253 275 152 146 255 162 253 106
269 269 266 262 255 248 237 236 237 241 240 236 231 225 198 207 217 195 188 163 156 189 196 149 108 191 96 189 208 212 207 225 261 209 189 177 173 199 188 223 264 148 126 191 150 70 111
266 264 263 263 260 258 249 241 237 236 241 252 229 240 220 230 285 226 222 232 224 210 181 188 225 161 181 179 209 195 212 217 190 251 160 238 199 187 198 217 86 50 73 82 143 124 114